Voltar ao catálogo

METEOR 2-17 DEB

AtivoPO
NORAD 28988·DEBRIS·🇷🇺 Russia

Lançado Jan 30, 1988 de Plesetsk Cosmodrome

Loading…

Próximas Passagens (próximas 24 horas)

TLE

AtualizadoSource: Space-Track

Época: Sep 12, 2026, 03:39 UTC

1 28988U 88005C   26255.15251190  .00001759  00000-0  11306-2 0  9995
2 28988  82.5359 194.5127 0013309   5.5854 354.5463 14.02639807625723

Acompanhe METEOR 2-17 DEB em tempo real com AllMySat

Download on the App Store